Weather History for Port Huron, MI

Change the Weather History Date:

Saturday, August 16, 2014

  Actual Average (KMTC) Record (KMTC)
Temperature  
Mean Temperature 62 °F -  
Max Temperature 75 °F 80 °F 94 °F (1987)
Min Temperature 48 °F 61 °F 44 °F (1979)
Degree Days  
Heating Degree Days 4    
Growing Degree Days 12 (Base 50)    
Moisture  
Dew Point 57 °F    
Average Humidity 82    
Maximum Humidity 100    
Minimum Humidity 60    
Precipitation  
Precipitation 0.00 in - - ()
Sea Level Pressure  
Sea Level Pressure 29.90 in    
Wind  
Wind Speed 3 mph (SW)    
Max Wind Speed 9 mph    
Max Gust Speed 17 mph    
Visibility 10 miles    
Events Rain    
Averages and records for this station are not official NWS values.
T = Trace of Precipitation, MM = Missing Value Source: NWS Daily Summary

Daily Weather History Graph

Daily Weather History Graph

Search for Another Location

Airport:

Trip Planner

Search our weather history database for the weather conditions in past years. The results will help you decide how hot, cold, wet, or windy it might be!

Date:

Astronomy

Aug. 16, 2014 Rise Set
Actual Time 6:37 AM EDT 8:30 PM EDT
Civil Twilight 6:06 AM EDT 9:01 PM EDT
Nautical Twilight 5:29 AM EDT 9:38 PM EDT
Astronomical Twilight 4:48 AM EDT 10:18 PM EDT
Moon No Moon Rise 1:32 PM EDT (8/16)
Length of Visible Light 14h 54m
Length of Day
13h 53m
Waning Gibbous, 59% of the Moon is Illuminated
Aug 16
Waning Gibbous
Aug 17
Last Quarter
Aug 25
New
Sep 2
First Quarter
Sep 8
Full

Hourly Weather History & Observations

Time (EDT) Temp. Dew Point Humidity Pressure Visibility Wind Dir Wind Speed Gust Speed Precip Events Conditions
12:16 AM 57.2 °F 51.8 °F 82% 29.95 in 10.0 mi SW 3.5 mph - N/A   Clear
12:36 AM 57.2 °F 51.8 °F 82% 29.96 in 10.0 mi SW 3.5 mph - N/A   Clear
12:56 AM 55.4 °F 50.0 °F 82% 29.96 in 10.0 mi Calm Calm - N/A   Clear
1:16 AM 55.4 °F 51.8 °F 88% 29.96 in 10.0 mi Calm Calm - N/A   Clear
1:36 AM 51.8 °F 50.0 °F 94% 29.95 in 10.0 mi Calm Calm - N/A   Clear
1:56 AM 50.0 °F 50.0 °F 100% 29.95 in 10.0 mi Calm Calm - N/A   Clear
2:16 AM 50.0 °F 50.0 °F 100% 29.95 in 10.0 mi SW 3.5 mph - N/A   Clear
2:36 AM 53.6 °F 51.8 °F 94% 29.94 in 10.0 mi WSW 3.5 mph - N/A   Clear
2:56 AM 55.4 °F 50.0 °F 82% 29.94 in 10.0 mi WSW 3.5 mph - N/A   Clear
3:16 AM 53.6 °F 50.0 °F 88% 29.93 in 10.0 mi Calm Calm - N/A   Clear
3:36 AM 53.6 °F 50.0 °F 88% 29.93 in 10.0 mi SW 3.5 mph - N/A   Clear
3:56 AM 51.8 °F 50.0 °F 94% 29.93 in 10.0 mi Calm Calm - N/A   Clear
4:16 AM 48.2 °F 48.2 °F 100% 29.93 in 10.0 mi Calm Calm - N/A   Clear
4:36 AM 48.2 °F 48.2 °F 100% 29.92 in 7.0 mi SSW 3.5 mph - N/A   Clear
4:56 AM 48.2 °F 48.2 °F 100% 29.93 in 10.0 mi SSW 3.5 mph - N/A   Clear
5:16 AM 51.8 °F 50.0 °F 94% 29.93 in 10.0 mi SW 3.5 mph - N/A   Clear
5:36 AM 51.8 °F 50.0 °F 94% 29.92 in 10.0 mi Calm Calm - N/A   Clear
5:56 AM 51.8 °F 50.0 °F 94% 29.92 in 10.0 mi SW 3.5 mph - N/A   Clear
6:16 AM 50.0 °F 48.2 °F 94% 29.91 in 10.0 mi SSW 3.5 mph - N/A   Clear
6:36 AM 51.8 °F 50.0 °F 94% 29.92 in 10.0 mi SW 3.5 mph - N/A   Clear
6:56 AM 51.8 °F 50.0 °F 94% 29.92 in 10.0 mi SSW 4.6 mph - N/A   Clear
7:15 AM 51.8 °F 50.0 °F 94% 29.91 in 10.0 mi SSW 3.5 mph - N/A   Clear
7:36 AM 53.6 °F 50.0 °F 88% 29.91 in 10.0 mi SSW 3.5 mph - N/A   Clear
7:56 AM 53.6 °F 51.8 °F 94% 29.91 in 10.0 mi SSW 3.5 mph - N/A   Mostly Cloudy
8:15 AM 55.4 °F 51.8 °F 88% 29.91 in 10.0 mi Calm Calm - N/A   Scattered Clouds
8:36 AM 57.2 °F 51.8 °F 82% 29.92 in 10.0 mi SW 4.6 mph - N/A   Clear
8:56 AM 59.0 °F 53.6 °F 82% 29.91 in 10.0 mi SW 4.6 mph - N/A   Scattered Clouds
9:15 AM 60.8 °F 53.6 °F 77% 29.91 in 10.0 mi SSW 3.5 mph - N/A   Clear
9:36 AM 64.4 °F 53.6 °F 68% 29.91 in 10.0 mi WSW 6.9 mph - N/A   Clear
9:56 AM 64.4 °F 55.4 °F 73% 29.91 in 10.0 mi SSW 6.9 mph - N/A   Clear
10:15 AM 66.2 °F 55.4 °F 68% 29.91 in 10.0 mi WSW 5.8 mph - N/A   Scattered Clouds
10:36 AM 68.0 °F 55.4 °F 64% 29.91 in 10.0 mi WSW 5.8 mph - N/A   Clear
10:55 AM 68.0 °F 55.4 °F 64% 29.91 in 10.0 mi WSW 5.8 mph - N/A   Clear
11:16 AM 68.0 °F 57.2 °F 68% 29.91 in 10.0 mi WSW 6.9 mph - N/A   Scattered Clouds
11:36 AM 69.8 °F 57.2 °F 64% 29.90 in 10.0 mi SW 6.9 mph - N/A   Clear
11:55 AM 71.6 °F 59.0 °F 64% 29.90 in 10.0 mi SW 5.8 mph - N/A   Clear
12:16 PM 71.6 °F 57.2 °F 60% 29.90 in 10.0 mi SW 9.2 mph 17.3 mph N/A   Clear
12:36 PM 71.6 °F 59.0 °F 64% 29.89 in 10.0 mi SW 5.8 mph - N/A   Clear
12:55 PM 71.6 °F 59.0 °F 64% 29.89 in 10.0 mi SW 5.8 mph - N/A   Clear
1:16 PM 71.6 °F 59.0 °F 64% 29.89 in 10.0 mi SW 5.8 mph - N/A   Clear
1:36 PM 73.4 °F 60.8 °F 65% 29.88 in 10.0 mi SW 8.1 mph - N/A   Clear
1:55 PM 75.2 °F 60.8 °F 61% 29.88 in 10.0 mi SW 8.1 mph - N/A   Clear
2:16 PM 73.4 °F 60.8 °F 65% 29.87 in 10.0 mi SW 6.9 mph - N/A Rain Light Rain
2:36 PM 73.4 °F 60.8 °F 65% 29.87 in 10.0 mi WSW 4.6 mph - N/A   Light Drizzle
2:56 PM 71.6 °F 62.6 °F 73% 29.87 in 10.0 mi WSW 4.6 mph - N/A Rain Light Rain
3:16 PM 69.8 °F 62.6 °F 78% 29.87 in 10.0 mi SW 3.5 mph - N/A Rain Light Rain
3:36 PM 68.0 °F 64.4 °F 88% 29.86 in 10.0 mi Calm Calm - N/A Rain Light Rain
3:56 PM 69.8 °F 64.4 °F 83% 29.86 in 10.0 mi Calm Calm - N/A   Overcast
4:16 PM 69.8 °F 66.2 °F 88% 29.86 in 10.0 mi Calm Calm - N/A   Overcast
4:36 PM 69.8 °F 66.2 °F 88% 29.85 in 10.0 mi SSE 3.5 mph - N/A   Drizzle
4:56 PM 69.8 °F 64.4 °F 83% 29.84 in 10.0 mi South 3.5 mph - N/A   Overcast
5:16 PM 71.6 °F 66.2 °F 83% 29.84 in 10.0 mi South 4.6 mph - N/A   Overcast
5:36 PM 69.8 °F 64.4 °F 83% 29.84 in 10.0 mi SSW 3.5 mph - N/A   Overcast
5:55 PM 69.8 °F 64.4 °F 83% 29.84 in 10.0 mi SSW 3.5 mph - N/A   Overcast
6:16 PM 69.8 °F 64.4 °F 83% 29.84 in 10.0 mi SSW 4.6 mph - N/A   Overcast
6:36 PM 69.8 °F 64.4 °F 83% 29.84 in 10.0 mi SSW 5.8 mph - N/A Rain Light Rain
6:55 PM 69.8 °F 64.4 °F 83% 29.84 in 10.0 mi SW 3.5 mph - N/A Rain Rain
7:16 PM 71.6 °F 64.4 °F 78% 29.85 in 10.0 mi West 3.5 mph - N/A   Overcast
7:36 PM 71.6 °F 64.4 °F 78% 29.85 in 10.0 mi West 3.5 mph - N/A   Overcast
7:55 PM 71.6 °F 64.4 °F 78% 29.86 in 10.0 mi West 4.6 mph - N/A   Overcast
8:16 PM 71.6 °F 64.4 °F 78% 29.86 in 10.0 mi West 3.5 mph - N/A   Overcast
8:36 PM 71.6 °F 64.4 °F 78% 29.87 in 10.0 mi WNW 4.6 mph - N/A   Overcast
8:55 PM 69.8 °F 64.4 °F 83% 29.87 in 10.0 mi NW 5.8 mph - N/A   Mostly Cloudy
9:16 PM 69.8 °F 64.4 °F 83% 29.88 in 10.0 mi NW 5.8 mph - N/A   Mostly Cloudy
9:35 PM 69.8 °F 64.4 °F 83% 29.89 in 10.0 mi NNW 3.5 mph - N/A   Overcast
9:56 PM 69.8 °F 64.4 °F 83% 29.89 in 10.0 mi Calm Calm - N/A   Overcast
10:16 PM 69.8 °F 64.4 °F 83% 29.89 in 10.0 mi NNW 3.5 mph - N/A   Overcast
10:36 PM 68.0 °F 64.4 °F 88% 29.90 in 10.0 mi NW 3.5 mph - N/A   Overcast
10:56 PM 68.0 °F 64.4 °F 88% 29.91 in 10.0 mi North 5.8 mph - N/A   Mostly Cloudy
11:16 PM 66.2 °F 62.6 °F 88% 29.91 in 10.0 mi North 5.8 mph - N/A   Overcast
11:36 PM 66.2 °F 60.8 °F 83% 29.91 in 10.0 mi North 8.1 mph - N/A   Overcast
11:56 PM 64.4 °F 60.8 °F 88% 29.91 in 10.0 mi North 4.6 mph - N/A   Mostly Cloudy